Location: Bergnershof
(48.9468°N, 10.9431°E)
Time: 05:01:57
(UTC+00:00)

FALCON 9 DEB - Pass Details

Date: 03 March 2021
Orbit: 372 x 388 km, 53.0° (Epoch: 11 April)

Event Time Altitude Azimuth Distance (km) Brightness Sun altitude
Rises 16:09:22 0° 245° (WSW) 2,277 9.2 7.7°
Reaches altitude 10° 16:11:25 10° 246° (WSW) 1,426 8.7 7.4°
Maximum altitude 16:14:37 87° 335° (NNW) 398 3.1 6.9°
Drops below altitude 10° 16:17:49 10° 65° (ENE) 1,434 5.1 6.4°
Enters shadow 16:21:25 -5° 66° (ENE) 2,924 6.6 5.8°
Exits shadow 16:57:33 -80° 81° (E) 12,939 10.4 0.0°
